OE3EMC-13 Weather Reports


time (UTC)temp
F
wind
direction
speed
knots
gust
knots
rain 1hr
in
rain 24hr
in
rain mn
in
humidity
%
barometer
mb
20260506150313 68 337 2.6 5.2 0.00 0.00 0.00 42 1100.0
20260506145312 69 22 2.6 2.6 0.00 0.00 0.00 40 1100.0
20260506144312 69 22 2.6 2.6 0.00 0.00 0.00 40 1100.0
20260506143311 71 337 3.5 4.3 0.00 0.00 0.00 38 1100.0
20260506142313 71 337 3.5 4.3 0.00 0.00 0.00 38 1100.0
20260506141313 76 315 3.5 4.3 0.00 0.00 0.00 36 1100.0
20260506140312 76 315 3.5 4.3 0.00 0.00 0.00 36 1100.0
20260506135311 76 22 5.2 7.0 0.00 0.00 0.00 35 1100.0
20260506134311 76 22 5.2 7.0 0.00 0.00 0.00 35 1100.0
20260506133311 76 337 3.5 5.2 0.00 0.00 0.00 36 1100.0
20260506132310 76 337 3.5 5.2 0.00 0.00 0.00 36 1100.0
20260506131310 73 45 5.2 12.2 0.00 0.00 0.00 38 1100.0
20260506130311 73 45 5.2 12.2 0.00 0.00 0.00 38 1100.0
20260506125310 72 45 3.5 5.2 0.00 0.00 0.00 40 1100.0
20260506124310 72 45 3.5 5.2 0.00 0.00 0.00 40 1100.0
20260506123310 71 22 2.6 7.0 0.00 0.00 0.00 41 1100.0
20260506122310 71 22 2.6 7.0 0.00 0.00 0.00 41 1100.0
20260506121310 72 292 2.6 2.6 0.00 0.00 0.00 46 1100.0
20260506120309 72 292 2.6 2.6 0.00 0.00 0.00 46 1100.0
20260506115314 69 360 1.7 1.7 0.00 0.00 0.00 45 1100.0
20260506114314 69 360 1.7 1.7 0.00 0.00 0.00 45 1100.0
20260506113315 68 360 3.5 2.6 0.00 0.00 0.00 45 1100.0
20260506112314 68 360 3.5 2.6 0.00 0.00 0.00 45 1100.0
20260506111313 67 360 1.7 3.5 0.00 0.00 0.00 47 1100.0
20260506110314 67 360 1.7 3.5 0.00 0.00 0.00 47 1100.0
20260506105314 70 202 3.5 2.6 0.00 0.00 0.00 49 1100.0
20260506104313 70 202 3.5 2.6 0.00 0.00 0.00 49 1100.0
20260506103313 67 337 2.6 3.5 0.00 0.00 0.00 51 1100.0
20260506102313 67 337 2.6 3.5 0.00 0.00 0.00 51 1100.0
20260506101313 67 45 2.6 1.7 0.00 0.00 0.00 50 1100.0
20260506100312 67 45 2.6 1.7 0.00 0.00 0.00 50 1100.0
20260506095312 68 292 1.7 3.5 0.00 0.00 0.00 47 1100.0
20260506094313 68 292 1.7 3.5 0.00 0.00 0.00 47 1100.0
20260506093312 67 135 0.9 0.0 0.00 0.00 0.00 50 1100.0
20260506092313 67 135 0.9 0.0 0.00 0.00 0.00 50 1100.0
20260506091313 66 360 0.9 2.6 0.00 0.00 0.00 52 1100.0
20260506090313 66 360 0.9 2.6 0.00 0.00 0.00 52 1100.0
20260506085312 65 292 2.6 3.5 0.00 0.00 0.00 57 1100.0
20260506084311 65 292 2.6 3.5 0.00 0.00 0.00 57 1100.0
20260506083312 62 360 2.6 2.6 0.00 0.00 0.00 63 1100.0
20260506082312 62 360 2.6 2.6 0.00 0.00 0.00 63 1100.0
20260506081311 59 292 2.6 2.6 0.00 0.00 0.00 68 1100.0
20260506080311 59 292 2.6 2.6 0.00 0.00 0.00 68 1100.0
20260506073310 58 270 1.7 4.3 0.00 0.00 0.00 69 1100.0
20260506072310 58 270 1.7 4.3 0.00 0.00 0.00 69 1100.0
20260506071310 56 337 3.5 3.5 0.00 0.00 0.00 70 1100.0
20260506070310 56 337 3.5 3.5 0.00 0.00 0.00 70 1100.0
20260506062311 53 360 3.5 3.5 0.00 0.00 0.00 79 1100.0
20260506061309 53 337 2.6 4.3 0.00 0.00 0.00 82 1100.0
20260506060314 53 337 2.6 4.3 0.00 0.00 0.00 82 1100.0
20260506051313 49 45 4.3 2.6 0.00 0.00 0.00 88 1100.0
20260506050314 49 45 4.3 2.6 0.00 0.00 0.00 88 1100.0
20260506044313 48 337 4.3 11.3 0.00 0.00 0.00 88 1100.0
20260506043314 48 292 4.3 8.7 0.00 0.00 0.00 88 1100.0
20260506042314 48 292 4.3 8.7 0.00 0.00 0.00 88 1100.0
20260506041314 48 360 2.6 5.2 0.00 0.00 0.00 87 1100.0
20260506040312 48 360 2.6 5.2 0.00 0.00 0.00 87 1100.0
20260506035312 48 90 1.7 0.9 0.00 0.00 0.00 87 1100.0
20260506034314 48 90 1.7 0.9 0.00 0.00 0.00 87 1100.0
20260506033312 47 337 1.7 3.5 0.00 0.00 0.00 87 1100.0
20260506032312 47 337 1.7 3.5 0.00 0.00 0.00 87 1100.0
20260506031312 48 67 0.0 0.9 0.00 0.00 0.00 84 1100.0
20260506030311 48 67 0.0 0.9 0.00 0.00 0.00 84 1100.0
20260506025313 48 45 0.9 0.9 0.00 0.00 0.00 84 1100.0
20260506024311 48 45 0.9 0.9 0.00 0.00 0.00 84 1100.0
20260506023311 49 315 0.0 0.0 0.00 0.00 0.00 82 1100.0
20260506022313 49 315 0.0 0.0 0.00 0.00 0.00 82 1100.0
20260506021311 50 315 0.9 0.9 0.00 0.00 0.00 82 1100.0
20260506020311 50 315 0.9 0.9 0.00 0.00 0.00 82 1100.0
20260506015310 51 90 2.6 4.3 0.00 0.00 0.00 81 1100.0
20260506014310 51 90 2.6 4.3 0.00 0.00 0.00 81 1100.0
20260506013310 51 67 2.6 3.5 0.00 0.00 0.00 83 1100.0
20260506012311 51 67 2.6 3.5 0.00 0.00 0.00 83 1100.0
20260506011311 51 90 1.7 2.6 0.00 0.00 0.00 85 1100.0
20260506010310 51 90 1.7 2.6 0.00 0.00 0.00 85 1100.0
20260506005310 51 90 1.7 4.3 0.00 0.00 0.00 84 1100.0
20260506004309 51 90 1.7 4.3 0.00 0.00 0.00 84 1100.0
20260506003310 51 135 2.6 7.0 0.00 0.00 0.00 83 1100.0
20260506002314 51 135 2.6 7.0 0.00 0.00 0.00 83 1100.0
20260506001315 52 112 3.5 7.0 0.00 0.00 0.00 82 1100.0
20260506000314 52 112 3.5 7.0 0.00 0.00 0.00 82 1100.0
20260505235314 51 135 1.7 3.5 0.00 0.00 0.00 82 1100.0
20260505234314 51 135 1.7 3.5 0.00 0.00 0.00 82 1100.0
20260505233313 51 67 0.9 1.7 0.00 0.00 0.00 82 1100.0
20260505232314 51 67 0.9 1.7 0.00 0.00 0.00 82 1100.0
20260505231313 51 22 1.7 0.9 0.00 0.00 0.00 82 1100.0
20260505230313 51 22 1.7 0.9 0.00 0.00 0.00 82 1100.0
20260505225314 51 360 1.7 3.5 0.00 0.00 0.00 83 1100.0
20260505224312 51 360 1.7 3.5 0.00 0.00 0.00 83 1100.0
20260505223312 51 337 0.9 0.9 0.00 0.00 0.00 82 1100.0
20260505222313 51 337 0.9 0.9 0.00 0.00 0.00 82 1100.0
20260505221312 52 45 2.6 3.5 0.00 0.00 0.00 82 1100.0
20260505220313 52 45 2.6 3.5 0.00 0.00 0.00 82 1100.0
20260505215313 53 45 2.6 1.7 0.00 0.00 0.00 83 1100.0
20260505214312 53 45 2.6 1.7 0.00 0.00 0.00 83 1100.0
20260505213312 54 337 2.6 3.5 0.00 0.00 0.00 79 1100.0
20260505212311 54 337 2.6 3.5 0.00 0.00 0.00 79 1100.0
20260505211311 55 67 3.5 2.6 0.00 0.00 0.00 74 1100.0
20260505210313 55 67 3.5 2.6 0.00 0.00 0.00 74 1100.0
20260505205311 56 90 4.3 7.8 0.00 0.00 0.00 73 1100.0
20260505204311 56 90 4.3 7.8 0.00 0.00 0.00 73 1100.0
20260505203311 57 292 5.2 4.3 0.00 0.00 0.00 69 1100.0
20260505202312 57 292 5.2 4.3 0.00 0.00 0.00 69 1100.0
20260505201310 59 90 3.5 4.3 0.00 0.00 0.00 64 1100.0
20260505200310 59 90 3.5 4.3 0.00 0.00 0.00 64 1100.0
20260505195310 60 45 4.3 13.9 0.00 0.00 0.00 61 1100.0
20260505194311 60 45 4.3 13.9 0.00 0.00 0.00 61 1100.0
20260505193310 60 360 3.5 7.0 0.00 0.00 0.00 57 1100.0
20260505192311 60 360 3.5 7.0 0.00 0.00 0.00 57 1100.0
20260505191310 60 360 1.7 1.7 0.00 0.00 0.00 54 1100.0
20260505190311 60 360 1.7 1.7 0.00 0.00 0.00 54 1100.0
20260505185309 61 67 1.7 1.7 0.00 0.00 0.00 51 1100.0
20260505184311 61 67 1.7 1.7 0.00 0.00 0.00 51 1100.0
20260505183315 64 22 0.9 1.7 0.00 0.00 0.00 46 1100.0
20260505182315 64 22 0.9 1.7 0.00 0.00 0.00 46 1100.0
20260505181314 66 360 1.7 0.9 0.00 0.00 0.00 43 1100.0
20260505180315 66 360 1.7 0.9 0.00 0.00 0.00 43 1100.0
20260505175314 68 360 1.7 1.7 0.00 0.00 0.00 42 1100.0
20260505174313 68 360 1.7 1.7 0.00 0.00 0.00 42 1100.0
20260505173314 69 337 2.6 4.3 0.00 0.00 0.00 39 1100.0
20260505172313 69 337 2.6 4.3 0.00 0.00 0.00 39 1100.0
20260505171314 70 45 2.6 0.9 0.00 0.00 0.00 37 1100.0
20260505170313 70 45 2.6 0.9 0.00 0.00 0.00 37 1100.0
20260505165312 72 337 3.5 4.3 0.00 0.00 0.00 35 1100.0
20260505164312 72 337 3.5 4.3 0.00 0.00 0.00 35 1100.0
20260505163314 74 45 2.6 4.3 0.00 0.00 0.00 34 1100.0
20260505162314 74 45 2.6 4.3 0.00 0.00 0.00 34 1100.0
20260505161312 76 337 3.5 6.1 0.00 0.00 0.00 31 1100.0
20260505160312 76 337 3.5 6.1 0.00 0.00 0.00 31 1100.0
20260505153311 77 337 2.6 3.5 0.00 0.00 0.00 31 1100.0
20260505152311 77 337 2.6 3.5 0.00 0.00 0.00 31 1100.0
20260505151311 81 360 2.6 1.7 0.00 0.00 0.00 28 1100.0